Regional Weather Roundup
Issued by NWS

Home | Current Version | Previous Version | Graphics & Text | Print | Product List | Glossary Off
Versions: 1 2 3 4 5 6 7 8 9 10 11 12 13 14 15 16 17 18 19 20 21 22 23 24 25 26 27 28 29 30 31 32 33 34 35 36 37 38 39 40 41 42 43 44 45 46 47 48 49 50

000
ASUS43 KMPX 250301
RWRMN
WEATHER ROUNDUP FOR MINNESOTA
NATIONAL WEATHER SERVICE TWIN CITIES/CHANHASSEN MN
1000 PM CDT SUN MAY 24 2015


NOTE: "FAIR" INDICATES FEW OR NO CLOUDS BELOW 12,000 FEET WITH NO
SIGNIFICANT WEATHER AND/OR OBSTRUCTIONS TO VISIBILITY. N/A MEANS
CURRENT SKY AND/OR WEATHER CONDITIONS ARE NOT AVAILABLE.

MNZ060>063-068>070-250400-
   Twin Cities Metro

CITY           SKY/WX    TMP DP  RH WIND       PRES   REMARKS
TWIN CITIES    LGT RAIN  59  57  93 E13       29.82F FOG
ST PAUL        LGT RAIN  58  57  97 E8        29.83F FOG
CRYSTAL        LGT RAIN  59  57  93 E8        29.82F FOG
BLAINE         RAIN      61  59  94 E9        29.83F
LAKEVILLE      DRIZZLE   55  55 100 E8        29.81F
EDEN PRAIRIE   LGT RAIN  59  57  93 E10       29.80F FOG
SOUTH ST PAUL  DRIZZLE   58  57  96 E5        29.82F
LAKE ELMO      RAIN      59  57  94 E9        29.84F
$$
MNZ001>005-007-008-013>017-022>024-027-028-250400-
   Northwest Minnesota

CITY           SKY/WX    TMP DP  RH WIND       PRES   REMARKS
BEMIDJI        CLOUDY    62  49  63 CALM      29.91S
HALLOCK        CLOUDY    66  48  52 S5        29.89S
ROSEAU         CLOUDY    64  52  63 CALM      29.91S
WARROAD        CLOUDY    61  54  77 SW3       29.92R
THIEF RVR FALL CLOUDY    64  48  55 CALM      29.91S
CROOKSTON      CLOUDY    66  48  52 CALM      29.89F
FOSSTON        CLOUDY    59  46  63 CALM      29.91S
DETROIT LAKES  CLOUDY    61  54  77 E3        29.91S
MOORHEAD       CLOUDY    64  55  72 SE3       29.89S
PARK RAPIDS    CLOUDY    63  50  62 E6        29.90F
MAHNOMEN       CLOUDY    64  49  59 E5        29.90S
$$
MNZ006-009>011-018-025>026-250400-
   North Central Minnesota

CITY           SKY/WX    TMP DP  RH WIND       PRES   REMARKS
BAUDETTE       CLOUDY    62  52  69 CALM      29.91R
FLAG ISLAND    MOCLDY    70  43  37 CALM      29.90R
INTL FALLS     CLOUDY    60  49  66 CALM      29.90S
WASKISH        CLOUDY    61  55  82 CALM      29.91S
BIG FORK       CLOUDY    59  52  77 CALM      29.93S
LONGVILLE      LGT RAIN  59  54  82 CALM      29.91F
GRAND RAPIDS   CLOUDY    57  52  82 CALM      29.93S
CRANE LAKE     CLOUDY    61  50  67 CALM      29.93S
COOK           CLOUDY    63  52  67 CALM      29.93S
WALKER         CLOUDY    62  51  67 CALM      29.91S
$$
MNZ012-019>021-037-250400-
   Northeast Minnesota

CITY           SKY/WX    TMP DP  RH WIND       PRES   REMARKS
DULUTH         LGT RAIN  59  55  87 E5        29.93F
ELY            CLOUDY    61  48  63 CALM      29.93F
HIBBING        CLOUDY    60  50  69 CALM      29.93S
EVELETH        CLOUDY    63  50  63 S5        29.95R
DULUTH HARBOR  DRIZZLE   55  54  94 N6        29.93F
TWO HARBORS    CLOUDY    63  54  72 CALM      29.92F
GRAND MARAIS     N/A     52  40  63 CALM      29.96R
G MARAIS ARPRT CLOUDY    57  39  51 S5        29.98S
$$
MNZ029>031-032-039>041-046>048-054>057-064-250400-
   West Central Minnesota

CITY           SKY/WX    TMP DP  RH WIND       PRES   REMARKS
FERGUS FALLS   DRIZZLE   59  55  88 E8        29.88S
WHEATON        RAIN      55  55 100 NE6       29.88S
MORRIS         RAIN      59  57  94 E9        29.84S
ALEXANDRIA     CLOUDY    58  56  93 NE10      29.87F
ELBOW LAKE     DRIZZLE   58  56  95 NE7       29.86S
WADENA         DRIZZLE   57  54  88 NE3       29.89S
GLENWOOD       CLOUDY    57  55  94 NE9       29.86S
APPLETON       LGT RAIN  61  57  88 E6        29.82F
BENSON         RAIN      57  55  94 E7        29.83S
ORTONVILLE     DRIZZLE   59  55  88 NE5       29.83S
MADISON        CLOUDY    59  57  94 NE8       29.82F
WILLMAR        LGT RAIN  59  57  94 E10       29.83S
$$
MNZ033>034-036-042>043-049>051-058-059-250400-
   Central Minnesota

CITY           SKY/WX    TMP DP  RH WIND       PRES   REMARKS
ST CLOUD       LGT RAIN  58  57  97 E6        29.84F FOG
SAUK CENTRE    RAIN      57  56  96 NE7       29.85F
PAYNESVILLE    DRIZZLE   55  56 100 N7        29.84S
AITKIN         DRIZZLE   59  54  82 E5        29.89S
PINE RIVER     DRIZZLE   59  54  82 E6        29.94S
BRAINERD       LGT RAIN  58  56  93 E6        29.89F
STAPLES        DRIZZLE   57  55  94 CALM      29.89S
LONG PRAIRIE   DRIZZLE   55  54  94 NE9G17    29.87F
LITTLE FALLS   LGT RAIN  55  54  94 NE5       29.87S
LITCHFIELD     DRIZZLE   59  59 100 E7        29.83S
BUFFALO        DRIZZLE   58  56  91 NE10      29.83F
MAPLE LAKE     CLOUDY    59  58  97 E12       29.84S
$$
MNZ037-044-045-052-053-250400-
   East Central Minnesota

CITY           SKY/WX    TMP DP  RH WIND       PRES   REMARKS
PRINCETON      HVY RAIN  61  57  88 E5        29.85F
MORA           LGT RAIN  55  54  94 E5        29.89F
CAMBRIDGE      DRIZZLE   61  52  72 E7        29.84F
RUSH CITY      LGT RAIN  58  56  95 NE7       29.87F
MOOSE LAKE     LGT RAIN  57  55  94 E5        29.89F
HINCKLEY       DRIZZLE   59  59 100 E7        29.89F
CLOQUET        CLOUDY    57  55  94 E5        29.92F
MCGREGOR       CLOUDY    57  55  94 E5        29.91F
$$
MNZ071>073-080-081-089-090-097-098-250400-
   Southwest Minnesota

CITY           SKY/WX    TMP DP  RH WIND       PRES   REMARKS
MONTEVIDEO     DRIZZLE   57  57 100 E9        29.82F
GRANITE FALLS  DRIZZLE   58  57  97 NE9       29.82S
CANBY          LGT RAIN  58  57  95 NE10      29.82F
MARSHALL       CLOUDY    57  54  88 NE12      29.79S
REDWOOD FALLS  CLOUDY    59  57  93 NE7       29.78F
OLIVIA         CLOUDY    57  55  94 NE5       29.79F
PIPESTONE      CLOUDY    57  57 100 NE5       29.78F
WINDOM         DRIZZLE   59  57  94 NE6       29.77S
WORTHINGTON    CLOUDY    59  55  88 NE7       29.77S
JACKSON        CLOUDY    59  59 100 NE7       29.76F FOG
TRACY          DRIZZLE   59  58  97 E8        29.79S
SLAYTON        DRIZZLE   58  58 100 CALM      29.79S
$$
MNZ065>067-074>077-082>085-091>093-250400-
   South Central Minnesota

CITY           SKY/WX    TMP DP  RH WIND       PRES   REMARKS
MANKATO        CLOUDY    59  57  94 E12       29.78S
NEW ULM        DRIZZLE   57  57 100 E7        29.77F
ST JAMES       CLOUDY    61  61 100 NE9       29.77F FOG
FAIRMONT       CLOUDY    61  55  82 E3        29.75S
GLENCOE        DRIZZLE   59  59 100 E8        29.80S
FARIBAULT      DRIZZLE   59  57  94 NE7       29.79F
OWATONNA       DRIZZLE   61  57  88 E9        29.79S
WASECA         DRIZZLE   59  57  94 E8        29.78F
ALBERT LEA     RAIN      63  63 100 E7        29.77F
$$
MNZ078>079-086>088-094>096-250400-
   Southeast Minnesota

CITY           SKY/WX    TMP DP  RH WIND       PRES   REMARKS
ROCHESTER      CLOUDY    59  58  96 SE10      29.82F FOG
RED WING       DRIZZLE   57  57 100 E8        29.81F
STANTON        DRIZZLE   59  57  92 E13       29.79F
DODGE CENTER   FOG       61  59  94 SE14      29.80F VSB 1
WINONA         CLOUDY    59  57  94 SE10      29.83F
AUSTIN         CLOUDY    61  59  94 SE8       29.79S FOG
PRESTON        CLOUDY    58  57  96 SE9       29.82F FOG
$$
ABBREVIATIONS USED IN REMARKS
   TC - TEMPERATURES IN CELSIUS
  WCI - WIND CHILL INDEX
   HX - HEAT INDEX
  VSB - VISIBILITY
$$


USA.gov is the U.S. government's official web portal to all federal, state and local government web resources and services.